Regional Weather Roundup
Issued by NWS

Home | Current Version | Previous Version | Text Only | Print | Product List | Glossary Off
Versions: 1 2 3 4 5 6 7 8 9 10 11 12 13 14 15 16 17 18 19 20 21 22 23 24 25 26 27 28

000
ASUS45 KPSR 250110
RWRAZ

ARIZONA HOURLY REGIONAL WEATHER ROUNDUP
NATIONAL WEATHER SERVICE PHOENIX AZ
600 PM MST SAT FEB 24 2018

NOTE: FAIR INDICATES FEW OR NO CLOUDS BELOW 12,000 FEET WITH NO
SIGNIFICANT WEATHER AND/OR OBSTRUCTIONS TO VISIBILITY.

AZZ001>003-036-250200-
NORTHWEST ARIZONA

CITY           SKY/WX    TMP DP  RH WIND       PRES   REMARKS
BULLHEAD CITY  PTCLDY    59  -2   8 S17       30.07F
KINGMAN        PTCLDY    45   1  16 SW23      30.05F
$$

AZZ004>008-015-016-018-250200-
NORTH CENTRAL ARIZONA

CITY           SKY/WX    TMP DP  RH WIND       PRES   REMARKS
GRAND CANYON   MOCLDY    31   9  39 W9        29.99F WCI  23
WILLIAMS       PTCLDY    32   9  37 SW9       30.00F WCI  24
PRESCOTT       PTCLDY    42   7  23 SW12      30.05F
FLAGSTAFF      PTCLDY    29   6  38 SW17G23   30.01F WCI  17
PAYSON         PTCLDY    41   9  26 SW7       30.08F
PAGE           CLOUDY    39  11  31 N3        29.97F
$$

AZZ009>014-017-250200-
NORTHEAST ARIZONA

CITY           SKY/WX    TMP DP  RH WIND       PRES   REMARKS
WINSLOW        CLEAR     43   8  23 W17       30.02F
SAINT JOHNS    PTCLDY    41  10  28 N3        30.01F
WINDOW ROCK    PTCLDY    32   7  35 SW13      29.99S WCI  22
SHOW LOW       CLEAR     37  10  32 SW16G22   30.06R WCI  28
$$

AZZ540-542>544-546-548-250200-
GREATER PHOENIX AREA

CITY           SKY/WX    TMP DP  RH WIND       PRES   REMARKS
PHOENIX        PTCLDY    58  14  17 VRB6      30.11F
BUCKEYE        CLEAR     57  12  17 S5        30.13F
GLENDALE       PTCLDY    57   9  14 S8        30.13F
LUKE AFB       CLEAR     57  13  17 S10       30.11F
DEER VALLEY    CLEAR     54  11  18 SW6       30.11F
SCOTTSDALE     CLEAR     56  14  19 S3        30.12F
MESA-FALCON    CLEAR     55  12  18 W5        30.14R
MESA-GATEWAY   CLEAR     55  12  18 MISG      30.14S
$$

AZZ539-553-250200-
SOUTHWEST MARICOPA COUNTY AND PINAL COUNTY

CITY           SKY/WX    TMP DP  RH WIND       PRES   REMARKS
CASA GRANDE    NOT AVBL
GILA BEND      FAIR      57   9  14 SW3       30.13F
$$

AZZ503-504-507>509-250200-
SOUTHEAST ARIZONA

CITY           SKY/WX    TMP DP  RH WIND       PRES   REMARKS
TUCSON         CLEAR     54  10  17 W6        30.13S
DAVIS-MONTHAN  CLEAR     54  15  21 NW6       30.10F
RYAN FIELD     CLEAR     54  12  19 NW5       30.14S
NOGALES        CLEAR     52   7  16 N6        30.10S
SIERRA VISTA   CLEAR     50   6  17 NW6       30.10F
DOUGLAS        CLEAR     51   5  15 NW8       30.09S
SAFFORD        CLEAR     52  10  18 W12       30.05F
$$

AZZ532-250200-
SOUTHWEST ARIZONA

CITY           SKY/WX    TMP DP  RH WIND       PRES   REMARKS
YUMA           CLEAR     60   5  11 W7        30.14F
$$

CAZ041-043-047-048-061-525>527-560>570-250200-
SOUTHERN CALIFORNIA

CITY           SKY/WX    TMP DP  RH WIND       PRES   REMARKS
DOWNTOWN L.A.  CLEAR     57  30  35 VRB5      30.19F
L.A. AIRPORT   PTCLDY    57  34  41 W17       30.20F
SAN DIEGO      PTCLDY    59  24  26 NW12      30.23F
BURBANK        CLEAR     58  27  30 S8        30.18S
ONTARIO        PTCLDY    57  28  33 SW12      30.18S
RIVERSIDE      CLEAR     57  26  30 W14       30.18S
PALM SPRINGS   CLEAR     62   5  10 E7        30.13F
EL CENTRO NAS  CLEAR     61   3  10 S7        30.15F
IMPERIAL       CLEAR     61   7  11 S6        30.13F
BLYTHE         CLEAR     60   2   9 SE8       30.12F
NEEDLES        PTCLDY    61  -6   6 SW9       30.08F
$$

NVZ020-UTZ003-250200-
SOUTHERN NEVADA-UTAH

CITY           SKY/WX    TMP DP  RH WIND       PRES   REMARKS
LAS VEGAS      MOCLDY    52  -4  10 SW15G23   30.00F
SALT LAKE CITY CLOUDY    30  15  53 S18G24    29.97S WCI  18
$$

NMZ009-TXZ055-250200-
NEW MEXICO-WEST TEXAS

CITY           SKY/WX    TMP DP  RH WIND       PRES   REMARKS
ALBUQUERQUE    PTCLDY    42   8  24 W13       29.99S
EL PASO        PTCLDY    53   5  14 W5        30.04R
$$


........................KEY........................
SKY/WX - SKY CONDITION/WEATHER
TMP    - TEMPERATURE IN FAHRENHEIT
DP     - DEW POINT IN FAHRENHEIT
RH     - RELATIVE HUMIDITY IN PERCENT
WIND   - DIRECTION AND SPEED IN MILES PER HOUR (MPH)
VRB    - VARIABLE WIND DIRECTION
PRES   - MEAN SEA LEVEL PRESSURE IN INCHES OF MERCURY
         F - FALLING PRESSURE   R - RISING PRESSURE
         S - STEADY PRESSURE
VSB    - VISIBILITY IN MILES
HX     - HEAT INDEX IN FAHRENHEIT
WCI    - WIND CHILL INDEX IN FAHRENHEIT
TC     - TEMPERATURE IN CELSIUS WHICH IS ALSO KNOWN AS
         TEMPERATURE IN CENTIGRADE
AFB    - AIR FORCE BASE
         LUKE AFB IS LUKE AIR FORCE BASE
         DAVIS-MONTHAN IS DAVIS-MONTHAN AIR FORCE BASE
NAS    - NAVAL AIR STATION
         EL CENTRO NAS IS EL CENTRO NAVAL AIR STATION
N/A    - NOT AVAILABLE





USA.gov is the U.S. government's official web portal to all federal, state and local government web resources and services.